User: anonymous
Location: Santa Barbara
(34.4500°N, 119.7700°W)
Time: 12:53:03
(UTC-07:00)
Language:

Cosmos 1626 Rocket - Orbit

View from above orbital plane
View from above orbital plane
View from above satellite
View from above satellite

Ground track
Ground track

The orbit data is extracted from the following two-line orbital elements,

1 15495U 85009B   14261.88991418  .00000442  00000-0  50980-4 0  8814
2 15495 082.5255 046.0593 0020899 040.2427 320.0331 14.83279022601352
Epoch (UTC): 18 September 2014 21:21:28
Eccentricity: 0.0020899
inclination: 82.5255°
perigee height: 604 km
apogee height: 633 km
right ascension of ascending node: 46.0593°
argument of perigee: 40.2427°
revolutions per day: 14.83279022
mean anomaly at epoch: 320.0331°
orbit number at epoch: 60135

The dashed part of the orbit path shows where the satellite is in the earth's shadow,  

DLR